Location: Eaton Estates
(41.3089°N, 82.0057°W)
Time: 13:16:11
(UTC+00:00)

Cosmos 2016 Rocket - Pass Details

Date: 17 June 2021
Orbit: 947 x 1000 km, 83.0° (Epoch: 26 July)

Event Time Altitude Azimuth Distance (km) Brightness Sun altitude
Rises 03:18:22 0° 353° (N) 3,626 8.2 -18.6°
Reaches altitude 10° 03:20:52 10° 354° (N) 2,677 7.3 -18.8°
Maximum altitude 03:26:59 82° 82° (E) 963 3.9 -19.4°
Enters shadow 03:29:55 33° 167° (SSE) 1,537 4.5 -19.7°
